Location: Milton Keynes
(52.0316°N, 0.7531°W)
Time: 23:17:17
(UTC+00:00)

ISS - Visible Passes

Search period start: 04 December 2023 00:00
Search period end: 14 December 2023 00:00
Orbit: 415 x 417 km, 51.6° (Epoch: 04 December)

Date Brightness Start Highest point End Pass type
(mag) Time Alt. Az. Time Alt. Az. Time Alt. Az.
04 Dec -2.8 16:26:33 10° W 16:29:49 49° SSW 16:33:04 10° SE visible
04 Dec -0.8 18:04:05 10° WSW 18:05:59 14° SW 18:07:53 10° S visible
05 Dec -1.1 17:15:05 10° W 17:17:39 20° SW 17:20:14 10° SSE visible
07 Dec 0.0 17:16:31 10° SW 17:16:53 10° SW 17:17:15 10° SW visible
